CW4778 Auckland NZ current weather conditions

sailwx.info

Wind from 183 at 10 knots gusting 14

Air temperature 20.6° C
Dewpoint 17.2° C

Last reported at 2020-Jan-26 06:53 UTC.
Time now 2020-Jan-26 07:55 UTC

Location: S 36°52' E 174°44'.
View on Google Maps.

See reports from other nearby stations

  
Tides and Currents Weather Stations Pressure Air Temp Water Temp Dewpoint Dewpoint Depression Visibility Wind Speed Wind Dir Waves Ship Positions
date/time (UTC)wind fromknots sea level pressurealtimeterstation pressurevisibilityair tempwater tempwave heightnotes
2020-Jan-26 06:53 183 10 gusting 14 20.6
2020-Jan-26 06:43 198 7 gusting 18 21.1
2020-Jan-26 06:33 190 10 gusting 13 21.1
2020-Jan-26 06:23 210 7 gusting 13 21.7
2020-Jan-26 06:18 202 6 gusting 12 21.7
2020-Jan-26 06:13 191 8 gusting 13 21.7
2020-Jan-26 06:08 197 8 gusting 13 21.7
2020-Jan-26 05:58 203 11 gusting 17 21.7
2020-Jan-26 05:53 194 7 gusting 12 21.7
2020-Jan-26 05:43 183 10 gusting 17 21.7
2020-Jan-26 05:38 194 10 gusting 15 22.2
2020-Jan-26 05:28 180 9 gusting 15 22.2
2020-Jan-26 05:23 184 9 gusting 15 22.2
2020-Jan-26 05:13 175 10 gusting 15 22.8
2020-Jan-26 05:08 188 10 gusting 13 22.8
2020-Jan-26 05:03 177 7 gusting 17 22.8
2020-Jan-26 04:58 180 10 gusting 15 22.8
2020-Jan-26 04:53 184 11 gusting 17 22.8
2020-Jan-26 04:38 187 10 gusting 17 23.3
2020-Jan-26 04:33 194 7 gusting 19 23.3
2020-Jan-26 04:23 194 10 gusting 18 23.3
2020-Jan-26 04:18 190 7 gusting 20 23.3
2020-Jan-26 04:13 186 12 gusting 20 23.3
2020-Jan-26 04:08 189 9 gusting 15 23.3
2020-Jan-26 03:58 193 11 gusting 22 23.3
2020-Jan-26 03:48 190 13 gusting 19 23.3
2020-Jan-26 03:38 190 14 gusting 18 23.9
2020-Jan-26 03:33 182 12 gusting 19 24.4
2020-Jan-26 03:28 200 13 gusting 19 24.4
2020-Jan-26 03:18 201 12 gusting 18 25.0
2020-Jan-26 03:08 180 11 gusting 18 25.0
2020-Jan-26 03:03 176 12 gusting 18 25.6
2020-Jan-26 02:53 194 11 gusting 15 25.6
2020-Jan-26 02:48 192 13 gusting 18 25.6
2020-Jan-26 02:43 186 12 gusting 18 25.0
2020-Jan-26 02:33 176 12 gusting 18 25.6
2020-Jan-26 02:28 178 14 gusting 21 25.6
2020-Jan-26 02:18 175 12 gusting 19 25.6
2020-Jan-26 02:13 191 10 gusting 17 25.6
2020-Jan-26 02:03 178 11 gusting 15 26.1
2020-Jan-26 01:58 178 12 gusting 17 26.1
2020-Jan-26 01:53 190 12 gusting 19 26.1
2020-Jan-26 01:43 196 8 gusting 15 26.7
2020-Jan-26 01:38 187 11 gusting 18 26.1
2020-Jan-26 01:33 197 8 gusting 14 26.7
2020-Jan-26 01:23 189 13 gusting 18 26.1
2020-Jan-26 01:13 187 9 gusting 18 26.7
2020-Jan-26 01:08 193 7 gusting 14 27.2
2020-Jan-26 01:03 166 7 gusting 15 26.7
2020-Jan-26 00:58 177 10 gusting 14 26.7
2020-Jan-26 00:53 174 8 gusting 17 27.2
2020-Jan-26 00:43 200 8 gusting 13 27.2
2020-Jan-26 00:28 180 10 gusting 15 27.2
2020-Jan-26 00:23 208 10 gusting 13 27.2
2020-Jan-26 00:18 168 11 gusting 17 27.2
2020-Jan-26 00:13 198 8 gusting 15 27.8
2020-Jan-26 00:08 198 11 gusting 15 27.2
2020-Jan-26 00:03 168 10 gusting 14 27.2
2020-Jan-25 23:58 177 8 gusting 15 27.2
2020-Jan-25 23:53 196 9 gusting 14 27.2
2020-Jan-25 23:48 189 7 gusting 13 27.2
2020-Jan-25 23:43 207 7 gusting 12 27.8
2020-Jan-25 23:38 211 9 gusting 13 27.2
2020-Jan-25 23:28 227 7 gusting 13 27.2
2020-Jan-25 23:23 229 7 gusting 11 27.2
2020-Jan-25 23:13 217 6 gusting 13 27.8
2020-Jan-25 23:03 192 6 gusting 14 26.7
2020-Jan-25 22:53 205 7 gusting 13 26.7
2020-Jan-25 22:48 165 8 gusting 13 26.7
2020-Jan-25 22:43 204 8 gusting 13 26.7
2020-Jan-25 22:38 213 7 gusting 13 26.7
2020-Jan-25 22:33 199 6 gusting 12 26.1
2020-Jan-25 22:23 208 8 gusting 18 25.6
2020-Jan-25 22:18 186 11 gusting 17 25.0
2020-Jan-25 22:13 166 11 gusting 15 25.0
2020-Jan-25 22:03 189 11 gusting 19 24.4
2020-Jan-25 21:53 193 8 gusting 13 25.6
2020-Jan-25 21:48 183 8 gusting 15 25.0
2020-Jan-25 21:43 199 8 gusting 13 25.0
2020-Jan-25 21:33 196 9 gusting 14 24.4
2020-Jan-25 21:28 162 11 gusting 13 24.4
2020-Jan-25 21:18 192 8 gusting 13 23.3
2020-Jan-25 21:08 188 8 gusting 12 22.8
2020-Jan-25 21:03 179 7 gusting 13 22.2
2020-Jan-25 20:53 175 8 gusting 13 22.2
2020-Jan-25 20:48 173 7 gusting 13 22.8
2020-Jan-25 20:43 180 11 gusting 17 22.8
2020-Jan-25 20:38 191 8 gusting 13 22.8
2020-Jan-25 20:33 169 10 gusting 14 22.2
2020-Jan-25 20:28 167 8 gusting 13 22.2
2020-Jan-25 20:23 185 10 gusting 13 22.2
2020-Jan-25 20:03 201 6 gusting 13 21.7
2020-Jan-25 19:58 186 9 gusting 15 21.1
2020-Jan-25 19:53 187 10 gusting 14 21.1
2020-Jan-25 19:48 227 8 gusting 12 21.1
2020-Jan-25 19:38 186 10 gusting 13 21.1
2020-Jan-25 19:28 191 8 gusting 17 21.1
2020-Jan-25 19:23 199 10 gusting 14 21.1
2020-Jan-25 19:18 195 7 gusting 13 21.1
2020-Jan-25 19:13 183 8 gusting 14 20.6
2020-Jan-25 19:08 207 7 gusting 12 20.6
2020-Jan-25 19:03 187 7 gusting 14 20.6
2020-Jan-25 18:58 193 7 gusting 11 20.6
2020-Jan-25 18:53 187 6 gusting 10 20.6
2020-Jan-25 18:48 187 6 gusting 11 20.0
2020-Jan-25 18:43 184 6 gusting 13 20.0
2020-Jan-25 18:33 172 5 gusting 12 20.0
2020-Jan-25 18:28 198 6 gusting 8 20.0
2020-Jan-25 18:18 191 9 gusting 12 20.0
2020-Jan-25 18:13 186 6 gusting 12 19.4
2020-Jan-25 18:08 192 7 gusting 13 19.4
2020-Jan-25 17:58 190 7 gusting 10 19.4
2020-Jan-25 17:53 193 5 gusting 8 19.4
2020-Jan-25 17:48 188 4 gusting 6 19.4
2020-Jan-25 17:43 194 6 gusting 7 18.9
2020-Jan-25 17:33 195 5 gusting 10 18.9
2020-Jan-25 17:28 190 6 gusting 12 18.9
2020-Jan-25 17:23 179 6 gusting 10 19.4
2020-Jan-25 17:18 181 6 gusting 8 19.4
2020-Jan-25 17:08 190 7 gusting 11 19.4
2020-Jan-25 17:03 193 6 gusting 10 19.4
2020-Jan-25 16:58 206 7 gusting 11 19.4
2020-Jan-25 16:53 198 4 gusting 11 19.4
2020-Jan-25 16:48 205 6 gusting 10 19.4
2020-Jan-25 16:43 203 6 gusting 10 19.4
2020-Jan-25 16:38 194 5 gusting 10 19.4
2020-Jan-25 16:33 172 6 gusting 8 19.4
2020-Jan-25 16:23 190 6 gusting 7 19.4
2020-Jan-25 16:18 220 2 gusting 7 19.4
2020-Jan-25 16:13 182 5 gusting 8 19.4
2020-Jan-25 16:03 202 5 gusting 8 19.4
2020-Jan-25 15:53 192 2 gusting 10 19.4
2020-Jan-25 15:48 212 4 gusting 7 19.4
2020-Jan-25 15:38 192 6 gusting 12 19.4
2020-Jan-25 15:28 201 6 gusting 14 19.4
2020-Jan-25 15:23 194 7 gusting 12 19.4
2020-Jan-25 15:18 175 6 gusting 18 19.4
2020-Jan-25 15:08 187 5 gusting 10 19.4
2020-Jan-25 15:03 199 4 gusting 12 19.4
2020-Jan-25 14:48 186 7 gusting 13 19.4
2020-Jan-25 14:43 190 6 gusting 13 19.4
2020-Jan-25 14:38 193 7 gusting 13 19.4
2020-Jan-25 14:33 182 6 gusting 11 19.4
2020-Jan-25 14:28 178 6 gusting 12 19.4
2020-Jan-25 14:23 187 5 gusting 13 19.4
2020-Jan-25 14:18 180 6 gusting 10 19.4
2020-Jan-25 14:13 189 7 gusting 12 19.4
2020-Jan-25 13:58 186 6 gusting 13 19.4
2020-Jan-25 13:53 195 6 gusting 8 19.4
2020-Jan-25 13:48 186 7 gusting 12 19.4
2020-Jan-25 13:43 206 6 gusting 10 19.4
2020-Jan-25 13:38 185 6 gusting 7 19.4
2020-Jan-25 13:33 197 6 gusting 8 19.4
2020-Jan-25 13:28 193 6 gusting 10 19.4
2020-Jan-25 13:18 191 5 gusting 12 19.4
2020-Jan-25 13:13 194 6 gusting 8 19.4
2020-Jan-25 13:08 195 7 gusting 12 19.4
2020-Jan-25 13:03 192 6 gusting 8 20.0
2020-Jan-25 12:48 183 10 gusting 14 20.0
2020-Jan-25 12:43 180 8 gusting 13 20.0
2020-Jan-25 12:33 173 7 gusting 11 20.0
2020-Jan-25 12:23 176 7 gusting 13 20.0
2020-Jan-25 12:13 192 7 gusting 11 20.0
2020-Jan-25 11:58 197 10 gusting 15 20.0
2020-Jan-25 11:53 186 10 gusting 14 20.0
2020-Jan-25 11:48 199 8 gusting 13 20.0
2020-Jan-25 11:43 185 7 gusting 13 20.0
2020-Jan-25 11:38 189 5 gusting 8 19.4
2020-Jan-25 11:33 190 6 gusting 13 20.0
2020-Jan-25 11:28 198 6 gusting 7 20.0
2020-Jan-25 11:23 223 5 gusting 10 20.0
2020-Jan-25 11:18 216 6 gusting 7 20.0
2020-Jan-25 11:08 203 5 gusting 11 20.0
2020-Jan-25 11:03 215 4 gusting 6 20.0
2020-Jan-25 10:58 220 1 gusting 8 20.0
2020-Jan-25 10:53 199 4 gusting 6 20.0
2020-Jan-25 10:48 173 1 gusting 8 20.0
2020-Jan-25 10:43 207 5 gusting 10 20.0
2020-Jan-25 10:28 230 1 gusting 8 20.6
2020-Jan-25 10:23 194 7 gusting 13 20.6
2020-Jan-25 10:18 197 6 gusting 12 20.6
2020-Jan-25 10:13 201 8 gusting 18 20.6
2020-Jan-25 10:08 185 7 gusting 13 20.6
2020-Jan-25 10:03 191 10 gusting 20 20.6
2020-Jan-25 09:58 197 12 gusting 20 20.6
2020-Jan-25 09:53 193 10 gusting 17 20.6
2020-Jan-25 09:48 194 8 gusting 13 20.6
2020-Jan-25 09:43 197 7 gusting 12 20.6
2020-Jan-25 09:38 203 5 gusting 11 20.6
2020-Jan-25 09:33 193 7 gusting 11 20.6
2020-Jan-25 09:28 197 5 gusting 7 20.6
2020-Jan-25 08:38 190 7 gusting 12 20.6
2020-Jan-25 08:28 196 10 gusting 13 20.6
2020-Jan-25 08:23 197 6 gusting 11 20.6
2020-Jan-25 08:18 184 8 gusting 11 20.6
2020-Jan-25 08:13 195 7 gusting 13 20.6
2020-Jan-25 08:08 192 7 gusting 11 20.6
2020-Jan-25 08:03 186 7 gusting 13 20.6
2020-Jan-25 07:58 197 6 gusting 11 20.6
2020-Jan-25 07:53 190 6 gusting 10 20.6
2020-Jan-25 07:48 212 6 gusting 12 20.6
2020-Jan-25 07:43 189 7 gusting 11 20.6
2020-Jan-25 07:38 203 7 gusting 11 20.6
2020-Jan-25 07:28 194 7 gusting 10 20.6
2020-Jan-25 07:23 197 9 gusting 15 20.6
2020-Jan-25 07:08 189 7 gusting 14 20.6
2020-Jan-25 07:03 217 5 gusting 12 20.6
2020-Jan-25 06:58 212 7 gusting 19 20.6
2020-Jan-25 06:53 188 6 gusting 13 20.6
2020-Jan-25 06:48 219 7 gusting 13 20.6
2020-Jan-25 06:43 198 7 gusting 17 21.1
2020-Jan-25 06:38 216 5 gusting 13 21.1
2020-Jan-25 06:33 188 6 gusting 13 21.1
2020-Jan-25 06:28 207 8 gusting 15 21.7
2020-Jan-25 06:18 187 4 gusting 10 21.7
2020-Jan-25 06:13 206 7 gusting 15 21.7
2020-Jan-25 06:03 195 7 gusting 18 21.7
2020-Jan-25 05:43 198 6 gusting 17 22.8
2020-Jan-25 05:38 200 8 gusting 13 22.8
2020-Jan-25 05:33 200 8 gusting 12 22.8
2020-Jan-25 05:28 211 7 gusting 17 22.8
2020-Jan-25 05:23 188 8 gusting 13 22.8
2020-Jan-25 05:18 202 7 gusting 14 22.8
2020-Jan-25 05:13 176 9 gusting 20 22.8
2020-Jan-25 05:08 181 10 gusting 13 23.3
2020-Jan-25 05:03 220 7 gusting 12 23.3
2020-Jan-25 04:53 180 8 gusting 13 23.3
2020-Jan-25 04:38 187 10 gusting 18 23.3
2020-Jan-25 04:33 191 11 gusting 19 23.3
2020-Jan-25 04:28 174 8 gusting 14 23.3
2020-Jan-25 04:23 183 7 gusting 13 23.9
2020-Jan-25 04:18 177 11 gusting 14 23.9
2020-Jan-25 04:03 192 7 gusting 14 23.9
2020-Jan-25 03:58 190 12 gusting 18 23.9
2020-Jan-25 03:53 171 10 gusting 14 23.9
2020-Jan-25 03:48 200 8 gusting 12 23.9
2020-Jan-25 03:43 169 7 gusting 12 24.4
2020-Jan-25 03:33 189 6 gusting 13 24.4
2020-Jan-25 03:23 204 6 gusting 13 24.4
2020-Jan-25 03:18 205 8 gusting 15 24.4
2020-Jan-25 03:13 201 8 gusting 17 24.4
2020-Jan-25 03:08 199 11 gusting 17 25.0
2020-Jan-25 03:03 210 10 gusting 19 25.0
2020-Jan-25 02:53 222 7 gusting 14 25.0
2020-Jan-25 02:43 194 9 gusting 19 25.0
2020-Jan-25 02:28 214 8 gusting 17 25.6
2020-Jan-25 02:18 212 12 gusting 18 25.0
2020-Jan-25 02:08 172 11 gusting 17 25.0
2020-Jan-25 02:03 201 12 gusting 17 25.6
2020-Jan-25 01:58 169 11 gusting 17 25.6
2020-Jan-25 01:53 192 9 gusting 13 26.1
2020-Jan-25 01:48 201 9 gusting 14 25.6
2020-Jan-25 01:43 196 8 gusting 19 26.1
2020-Jan-25 01:38 184 11 gusting 19 26.1
2020-Jan-25 01:33 212 6 gusting 13 26.1
2020-Jan-25 01:28 192 6 gusting 13 26.1
2020-Jan-25 01:23 219 7 gusting 14 25.6
2020-Jan-25 01:18 185 7 gusting 19 25.6
2020-Jan-25 01:08 213 9 gusting 13 25.6
2020-Jan-25 01:03 179 11 gusting 18 25.6
2020-Jan-25 00:58 196 8 gusting 13 26.1
2020-Jan-25 00:53 186 11 gusting 18 26.1
2020-Jan-25 00:48 192 6 gusting 15 26.7
2020-Jan-25 00:43 215 8 gusting 13 26.1
2020-Jan-25 00:38 209 6 gusting 18 26.1
2020-Jan-25 00:33 168 11 gusting 18 26.1
2020-Jan-25 00:28 185 11 gusting 20 26.1
2020-Jan-25 00:23 158 11 gusting 18 26.1
2020-Jan-25 00:18 183 10 gusting 19 25.6
2020-Jan-25 00:13 170 13 gusting 21 26.1
2020-Jan-25 00:08 180 11 gusting 13 26.1
2020-Jan-24 23:53 175 8 gusting 14 26.1
2020-Jan-24 23:48 159 11 gusting 17 26.1
2020-Jan-24 23:43 180 8 gusting 13 26.1
2020-Jan-24 23:33 162 7 gusting 12 26.1
2020-Jan-24 23:23 181 10 gusting 17 25.6
2020-Jan-24 23:18 155 7 gusting 15 25.6
2020-Jan-24 23:13 168 8 gusting 13 25.6
2020-Jan-24 22:58 172 6 gusting 12 26.1
2020-Jan-24 22:48 161 7 gusting 11 25.0
2020-Jan-24 22:43 170 8 gusting 11 25.0
2020-Jan-24 22:38 163 8 gusting 11 25.0
2020-Jan-24 22:33 179 7 gusting 12 25.6
2020-Jan-24 22:28 187 5 gusting 11 25.6
2020-Jan-24 22:23 185 6 gusting 8 25.6
2020-Jan-24 22:18 123 5 gusting 11 25.0
2020-Jan-24 22:08 166 6 gusting 11 24.4
2020-Jan-24 21:58 188 6 gusting 10 24.4
2020-Jan-24 21:53 201 5 gusting 8 24.4
2020-Jan-24 21:48 190 4 gusting 11 23.9
2020-Jan-24 21:38 211 5 gusting 7 23.9
2020-Jan-24 21:33 194 6 gusting 12 23.9
2020-Jan-24 21:28 173 3 gusting 6 23.3
2020-Jan-24 21:23 193 5 gusting 8 22.8
2020-Jan-24 21:13 180 5 gusting 12 21.7
2020-Jan-24 21:08 213 7 gusting 13 21.1
2020-Jan-24 20:58 211 4 gusting 12 21.1
2020-Jan-24 20:53 198 6 gusting 10 21.1
2020-Jan-24 20:48 190 8 gusting 11 21.1
2020-Jan-24 20:43 210 4 gusting 8 21.1
2020-Jan-24 20:33 221 5 gusting 7 20.6
2020-Jan-24 20:18 207 2 gusting 7 20.0
2020-Jan-24 20:13 253 4 gusting 11 20.0
2020-Jan-24 20:08 226 1 gusting 11 20.6
2020-Jan-24 20:03 210 2 gusting 6 19.4
2020-Jan-24 19:58 234 5 gusting 10 19.4
2020-Jan-24 19:53 243 5 gusting 7 19.4
2020-Jan-24 19:43 269 3 gusting 7 19.4
2020-Jan-24 19:38 224 3 gusting 7 19.4
2020-Jan-24 19:33 232 2 gusting 6 19.4
2020-Jan-24 19:28 093 1 gusting 4 20.0
2020-Jan-24 13:18 229 16.7
2020-Jan-24 13:13 229 16.7
2020-Jan-24 13:08 232 0 gusting 1 16.7
2020-Jan-24 13:03 232 0 gusting 1 16.7
2020-Jan-24 12:58 236 1 gusting 2 16.7
2020-Jan-24 12:48 238 16.7
2020-Jan-24 12:43 237 16.7
2020-Jan-24 12:38 238 16.7
2020-Jan-24 12:33 238 16.7
2020-Jan-24 12:28 238 16.7
2020-Jan-24 12:23 238 16.7
2020-Jan-24 12:18 237 16.7
2020-Jan-24 12:13 238 17.2
2020-Jan-24 12:08 240 1 gusting 2 17.2
2020-Jan-24 12:03 235 17.2
2020-Jan-24 11:58 235 17.2
2020-Jan-24 11:48 236 1 gusting 4 17.2
2020-Jan-24 11:43 226 1 gusting 2 17.2
2020-Jan-24 11:38 226 1 gusting 4 17.2
2020-Jan-24 11:33 219 17.2
2020-Jan-24 11:28 219 17.2
2020-Jan-24 11:23 219 0 gusting 2 17.2
2020-Jan-24 11:18 225 1 gusting 4 17.2
2020-Jan-24 11:13 201 17.8
2020-Jan-24 11:08 202 2 gusting 4 17.8
2020-Jan-24 11:03 221 2 gusting 5 17.8
2020-Jan-24 10:58 224 1 gusting 2 17.8
2020-Jan-24 10:53 212 1 gusting 4 17.8
2020-Jan-24 10:48 210 0 gusting 2 17.8
2020-Jan-24 10:43 198 1 gusting 4 18.3
2020-Jan-24 10:38 199 0 gusting 2 18.3
2020-Jan-24 10:23 195 0 gusting 2 18.3
2020-Jan-24 10:08 199 1 gusting 4 18.9
2020-Jan-24 09:58 187 2 gusting 5 18.9
2020-Jan-24 07:13 226 2 gusting 6 21.7
2020-Jan-24 07:08 225 2 gusting 7 22.2
2020-Jan-24 07:03 213 4 gusting 7 22.2